• In Deutschland
  • Länderverzeichnis
  • Für 7 Tage
  • Wassertemperatur
  • Satellitenkarten
  • Wetterkarte
  • Widgets
  • user-avatar
    Anmelden

    Stündliche Wetter Bad Sulza

    Heute, 17 Oktober, Dienstag

    Zeit Temperatur Niederschläge Wind Luftdruck Luftfeuchtigkeit
    00:00 +14°C° 0 mm 3 m/S 749 mmHg 80%
    01:00 +14°C° 0 mm 3 m/S 749 mmHg 79%
    02:00 +14°C° 0 mm 3 m/S 749 mmHg 79%
    03:00 +14°C° 0 mm 3 m/S 749 mmHg 79%
    04:00 +14°C° 0 mm 3 m/S 749 mmHg 78%
    05:00 +13°C° 0 mm 3 m/S 749 mmHg 78%
    06:00 +13°C° 0 mm 3 m/S 749 mmHg 78%
    07:00 +12°C° 0 mm 3 m/S 749 mmHg 77%
    08:00 +14°C° 0 mm 3 m/S 749 mmHg 71%
    09:00 +17°C° 0 mm 3 m/S 749 mmHg 65%
    10:00 +19°C° 0 mm 3 m/S 749 mmHg 59%
    11:00 +21°C° 0 mm 3 m/S 749 mmHg 56%
    12:00 +22°C° 0 mm 3 m/S 748 mmHg 53%
    13:00 +24°C° 0 mm 2 m/S 748 mmHg 50%
    14:00 +24°C° 0 mm 2 m/S 748 mmHg 54%
    15:00 +23°C° 0 mm 2 m/S 747 mmHg 57%
    16:00 +22°C° 0 mm 1 m/S 747 mmHg 61%
    17:00 +21°C° 0 mm 1 m/S 747 mmHg 66%
    18:00 +19°C° 0 mm 1 m/S 746 mmHg 71%
    19:00 +16°C° 0 mm 1 m/S 746 mmHg 76%
    20:00 +15°C° 0 mm 1 m/S 746 mmHg 78%
    21:00 +15°C° 0 mm 1 m/S 746 mmHg 79%
    22:00 +14°C° 0 mm 1 m/S 746 mmHg 81%
    23:00 +14°C° 0 mm 1 m/S 746 mmHg 81%

    Morgen, 18 Oktober, Mittwoch

    Zeit Temperatur Niederschläge Wind Luftdruck Luftfeuchtigkeit
    00:00 +14°C° 0 mm 1 m/S 746 mmHg 82%
    01:00 +13°C° 0 mm 1 m/S 745 mmHg 83%
    02:00 +13°C° 0 mm 1 m/S 745 mmHg 83%
    03:00 +13°C° 0 mm 1 m/S 745 mmHg 84%
    04:00 +12°C° 0 mm 1 m/S 744 mmHg 85%
    05:00 +12°C° 0 mm 1 m/S 744 mmHg 85%
    06:00 +12°C° 0 mm 1 m/S 744 mmHg 85%
    07:00 +12°C° 0 mm 1 m/S 744 mmHg 85%
    08:00 +14°C° 0 mm 1 m/S 744 mmHg 78%
    09:00 +16°C° 0 mm 1 m/S 744 mmHg 71%
    10:00 +19°C° 0 mm 1 m/S 744 mmHg 64%
    11:00 +20°C° 0 mm 1 m/S 744 mmHg 60%
    12:00 +21°C° 0 mm 1 m/S 743 mmHg 56%
    13:00 +22°C° 0 mm 1 m/S 743 mmHg 51%
    14:00 +21°C° 0 mm 1 m/S 743 mmHg 54%
    15:00 +21°C° 0 mm 1 m/S 743 mmHg 58%
    16:00 +21°C° 0 mm 1 m/S 742 mmHg 61%
    17:00 +19°C° 0 mm 1 m/S 742 mmHg 66%
    18:00 +16°C° 0 mm 1 m/S 742 mmHg 71%
    19:00 +15°C° 0 mm 1 m/S 742 mmHg 75%
    20:00 +14°C° 0 mm 1 m/S 742 mmHg 77%
    21:00 +14°C° 0 mm 1 m/S 743 mmHg 79%
    22:00 +13°C° 0 mm 2 m/S 743 mmHg 81%
    23:00 +13°C° 0 mm 2 m/S 743 mmHg 82%

    übermorgen, 19 Oktober, Donnerstag

    Zeit Temperatur Niederschläge Wind Luftdruck Luftfeuchtigkeit
    00:00 +12°C° 0 mm 2 m/S 743 mmHg 82%
    01:00 +12°C° 0 mm 2 m/S 743 mmHg 83%
    02:00 +12°C° 0 mm 2 m/S 743 mmHg 83%
    03:00 +10°C° 0 mm 2 m/S 743 mmHg 83%
    04:00 +10°C° 0 mm 2 m/S 743 mmHg 83%
    05:00 +10°C° 0 mm 2 m/S 743 mmHg 83%
    06:00 +10°C° 0 mm 2 m/S 743 mmHg 83%
    07:00 +10°C° 0 mm 2 m/S 743 mmHg 83%
    08:00 +13°C° 0 mm 2 m/S 743 mmHg 76%
    09:00 +15°C° 0 mm 2 m/S 743 mmHg 69%
    10:00 +17°C° 0 mm 2 m/S 743 mmHg 62%
    11:00 +18°C° 0 mm 2 m/S 743 mmHg 58%
    12:00 +20°C° 0 mm 2 m/S 743 mmHg 53%
    13:00 +21°C° 0 mm 3 m/S 743 mmHg 48%
    14:00 +21°C° 0 mm 2 m/S 743 mmHg 51%
    15:00 +20°C° 0 mm 2 m/S 742 mmHg 54%
    16:00 +20°C° 0 mm 2 m/S 742 mmHg 58%
    17:00 +19°C° 0 mm 2 m/S 742 mmHg 60%
    18:00 +17°C° 0 mm 2 m/S 742 mmHg 63%
    19:00 +16°C° 0 mm 2 m/S 743 mmHg 66%
    20:00 +16°C° 0 mm 2 m/S 743 mmHg 65%
    21:00 +16°C° 0 mm 2 m/S 743 mmHg 65%
    22:00 +16°C° 0 mm 2 m/S 743 mmHg 65%
    23:00 +15°C° 0 mm 2 m/S 743 mmHg 66%

    20 Oktober, Freitag

    Zeit Temperatur Niederschläge Wind Luftdruck Luftfeuchtigkeit
    00:00 +15°C° 0 mm 2 m/S 743 mmHg 66%
    01:00 +14°C° 0 mm 3 m/S 743 mmHg 67%
    02:00 +14°C° 0 mm 3 m/S 743 mmHg 67%
    03:00 +14°C° 0 mm 3 m/S 743 mmHg 67%
    04:00 +14°C° 0 mm 3 m/S 743 mmHg 67%
    05:00 +13°C° 0,1 mm 3 m/S 743 mmHg 68%
    06:00 +13°C° 0,1 mm 3 m/S 743 mmHg 69%
    07:00 +13°C° 0,1 mm 3 m/S 743 mmHg 70%
    08:00 +14°C° 0 mm 3 m/S 743 mmHg 67%
    09:00 +15°C° 0 mm 4 m/S 744 mmHg 64%
    10:00 +17°C° 0 mm 4 m/S 744 mmHg 60%
    11:00 +18°C° 0 mm 4 m/S 744 mmHg 59%
    12:00 +19°C° 0 mm 5 m/S 744 mmHg 57%
    13:00 +20°C° 0 mm 5 m/S 743 mmHg 56%
    14:00 +20°C° 0 mm 4 m/S 743 mmHg 59%
    15:00 +19°C° 0 mm 4 m/S 743 mmHg 63%
    16:00 +19°C° 0 mm 3 m/S 743 mmHg 67%
    17:00 +18°C° 0 mm 3 m/S 743 mmHg 72%
    18:00 +16°C° 0 mm 3 m/S 743 mmHg 77%
    19:00 +14°C° 0 mm 3 m/S 743 mmHg 82%
    20:00 +14°C° 0 mm 3 m/S 744 mmHg 82%
    21:00 +14°C° 0 mm 3 m/S 744 mmHg 82%
    22:00 +14°C° 0 mm 3 m/S 744 mmHg 83%
    23:00 +13°C° 0 mm 3 m/S 744 mmHg 83%

    21 Oktober, Samstag

    Zeit Temperatur Niederschläge Wind Luftdruck Luftfeuchtigkeit
    00:00 +13°C° 0 mm 3 m/S 744 mmHg 84%
    01:00 +13°C° 0 mm 3 m/S 744 mmHg 85%
    02:00 +13°C° 0 mm 3 m/S 744 mmHg 85%
    03:00 +13°C° 0 mm 3 m/S 743 mmHg 85%
    04:00 +12°C° 0 mm 3 m/S 743 mmHg 84%
    05:00 +12°C° 0 mm 3 m/S 743 mmHg 83%
    06:00 +12°C° 0 mm 3 m/S 743 mmHg 82%
    07:00 +12°C° 0 mm 3 m/S 743 mmHg 80%
    08:00 +14°C° 0 mm 4 m/S 743 mmHg 75%
    09:00 +17°C° 0 mm 4 m/S 743 mmHg 69%
    10:00 +18°C° 0 mm 4 m/S 743 mmHg 63%
    11:00 +19°C° 0 mm 5 m/S 743 mmHg 60%
    12:00 +20°C° 0 mm 5 m/S 743 mmHg 58%
    13:00 +21°C° 0 mm 5 m/S 742 mmHg 55%
    14:00 +20°C° 0,1 mm 5 m/S 742 mmHg 59%
    15:00 +20°C° 0,1 mm 4 m/S 742 mmHg 64%
    16:00 +19°C° 0,1 mm 4 m/S 742 mmHg 68%
    17:00 +18°C° 0,5 mm 4 m/S 743 mmHg 75%
    18:00 +17°C° 0,5 mm 4 m/S 743 mmHg 82%
    19:00 +14°C° 0,5 mm 3 m/S 743 mmHg 89%
    20:00 +14°C° 0 mm 3 m/S 744 mmHg 89%
    21:00 +14°C° 0 mm 3 m/S 744 mmHg 89%
    22:00 +13°C° 0 mm 3 m/S 744 mmHg 89%
    23:00 +13°C° 0 mm 3 m/S 744 mmHg 89%

    22 Oktober, Sonntag

    Zeit Temperatur Niederschläge Wind Luftdruck Luftfeuchtigkeit
    00:00 +12°C° 0 mm 3 m/S 744 mmHg 89%
    01:00 +11°C° 0 mm 3 m/S 744 mmHg 89%
    02:00 +11°C° 0 mm 3 m/S 745 mmHg 88%
    03:00 +11°C° 0 mm 3 m/S 745 mmHg 88%
    04:00 +11°C° 0 mm 3 m/S 745 mmHg 87%
    05:00 +11°C° 0 mm 3 m/S 745 mmHg 87%
    06:00 +10°C° 0 mm 3 m/S 745 mmHg 88%
    07:00 +10°C° 0 mm 4 m/S 744 mmHg 88%
    08:00 +10°C° 0 mm 4 m/S 745 mmHg 84%
    09:00 +10°C° 0 mm 5 m/S 745 mmHg 81%
    10:00 +10°C° 0 mm 5 m/S 745 mmHg 77%
    11:00 +10°C° 0 mm 5 m/S 745 mmHg 75%
    12:00 +10°C° 0 mm 5 m/S 745 mmHg 73%
    13:00 +10°C° 0 mm 5 m/S 745 mmHg 71%
    14:00 +10°C° 0 mm 5 m/S 745 mmHg 71%
    15:00 +10°C° 0 mm 5 m/S 745 mmHg 71%
    16:00 +11°C° 0 mm 4 m/S 745 mmHg 71%
    17:00 +10°C° 0 mm 4 m/S 745 mmHg 74%
    18:00 +8°C° 0 mm 4 m/S 746 mmHg 77%
    19:00 +7°C° 0 mm 4 m/S 746 mmHg 80%
    20:00 +7°C° 0 mm 4 m/S 746 mmHg 81%
    21:00 +6°C° 0 mm 4 m/S 747 mmHg 81%
    22:00 +6°C° 0 mm 4 m/S 747 mmHg 81%
    23:00 +6°C° 0 mm 4 m/S 747 mmHg 83%
    Mehr zeigen